Weather History for Sparrevohn, AK

Change the Weather History Date:

Sunday, January 6, 2013

  Actual Average Record
Temperature  
Mean Temperature 22 °F -  
Max Temperature 32 °F 15 °F 42 °F (2014)
Min Temperature 12 °F 0 °F -29 °F (1997)
Degree Days  
Heating Degree Days 42    
Moisture  
Dew Point 25 °F    
Average Humidity 91    
Maximum Humidity 100    
Minimum Humidity 66    
Precipitation  
Precipitation 0.05 in - - ()
Sea Level Pressure  
Sea Level Pressure 29.21 in    
Wind  
Wind Speed 4 mph (NNE)    
Max Wind Speed 17 mph    
Max Gust Speed 22 mph    
Visibility 8 miles    
Events Rain , Snow    
Averages and records for this station are not official NWS values.
T = Trace of Precipitation, MM = Missing Value Source: NWS Daily Summary

Daily Weather History Graph

Daily Weather History Graph

Search for Another Location

Airport:

Trip Planner

Search our weather history database for the weather conditions in past years. The results will help you decide how hot, cold, wet, or windy it might be!

Date:

Astronomy

Jan. 06, 2013 Rise Set
Actual Time 10:30 AM AKST 4:26 PM AKST
Civil Twilight 9:31 AM AKST 5:25 PM AKST
Nautical Twilight 8:33 AM AKST 6:23 PM AKST
Astronomical Twilight 7:41 AM AKST 7:16 PM AKST
Moon 4:17 AM AKST (1/6) 12:36 PM AKST (1/6)
Length of Visible Light 7h 53m
Length of Day
5h 56m
Waning Crescent, 31% of the Moon is Illuminated
Jan 6
Waning Crescent
Jan 11
New
Jan 18
First Quarter
Jan 26
Full
Feb 3
Last Quarter

Hourly Weather History & Observations

Time (AKST) Temp. Windchill Dew Point Humidity Pressure Visibility Wind Dir Wind Speed Gust Speed Precip Events Conditions
12:01 AM 28.4 °F - 28.4 °F 100% 29.30 in 2.5 mi WNW 1.2 mph - N/A Snow Light Snow
12:16 AM 28.4 °F - 28.4 °F 100% 29.30 in 1.5 mi ENE 2.3 mph - N/A Snow Light Snow
12:46 AM 30.2 °F - 30.2 °F 100% 29.31 in 2.0 mi Variable 1.2 mph - N/A Snow Light Snow
12:55 AM 29.3 °F - 29.5 °F 100% 29.31 in 1.8 mi Variable 2.3 mph - 0.03 in Snow Light Snow
1:01 AM 30.2 °F 25.4 °F 30.2 °F 100% 29.31 in 2.0 mi Variable 4.6 mph - N/A Snow Light Snow
1:16 AM 30.2 °F 26.7 °F 30.2 °F 100% 29.31 in 2.5 mi SE 3.5 mph - N/A Snow Light Snow
1:31 AM 30.2 °F 24.3 °F 28.4 °F 93% 29.32 in 6.0 mi Variable 5.8 mph - N/A Snow Light Snow
1:46 AM 28.4 °F 22.2 °F 28.4 °F 100% 29.32 in 10.0 mi South 5.8 mph - N/A Rain , Snow Light Freezing Rain
1:55 AM 29.1 °F 25.4 °F 28.8 °F 99% 29.32 in 10.0 mi Variable 3.5 mph - 0.02 in Rain , Snow Light Freezing Rain
2:01 AM 30.2 °F 25.4 °F 28.4 °F 93% 29.24 in 10.0 mi Variable 4.6 mph - N/A Snow Light Snow
2:46 AM 30.2 °F 26.7 °F 28.4 °F 93% 29.32 in 9.0 mi Variable 3.5 mph - N/A Rain , Snow Light Freezing Rain
3:16 AM 28.4 °F 23.3 °F 28.4 °F 100% 29.31 in 6.0 mi SSW 4.6 mph - N/A Snow Light Snow
3:31 AM 28.4 °F 24.6 °F 28.4 °F 100% 29.31 in 3.0 mi SW 3.5 mph - N/A Snow Light Snow
3:55 AM 28.8 °F - 28.2 °F 98% 29.31 in 10.0 mi Variable 2.3 mph - 0.00 in Snow Light Snow
4:16 AM 28.4 °F - 28.4 °F 100% 29.31 in 10.0 mi NE 2.3 mph - N/A Rain , Snow Light Freezing Rain
4:31 AM 28.4 °F 24.6 °F 28.4 °F 100% 29.30 in 10.0 mi North 3.5 mph - N/A Snow Light Snow Showers
4:46 AM 28.4 °F - 28.4 °F 100% 29.29 in 10.0 mi North 2.3 mph - N/A Snow Light Snow Showers
4:55 AM 28.4 °F 24.6 °F 28.4 °F 100% 29.20 in 10.0 mi North 3.5 mph - N/A Snow Light Snow Showers
5:46 AM 28.4 °F - 26.6 °F 93% 29.27 in 10.0 mi NW 2.3 mph - N/A   Mostly Cloudy
5:55 AM 29.1 °F - 26.8 °F 91% 29.26 in 10.0 mi NW 2.3 mph - N/A   Mostly Cloudy
6:55 AM 27.1 °F 23.2 °F 26.4 °F 97% 29.26 in 10.0 mi North 3.5 mph - N/A   Mostly Cloudy
7:55 AM 27.5 °F 23.6 °F 26.4 °F 96% 29.24 in 10.0 mi NNE 3.5 mph - N/A   Mostly Cloudy
8:55 AM 26.1 °F 20.5 °F 25.2 °F 96% 29.22 in 10.0 mi NE 4.6 mph - N/A   Mostly Cloudy
9:31 AM 28.4 °F 22.2 °F 26.6 °F 93% 29.21 in 10.0 mi ENE 5.8 mph - N/A Snow Light Snow
9:46 AM 28.4 °F 20.4 °F 26.6 °F 93% 29.21 in 10.0 mi NNE 8.1 mph 15.0 mph N/A   Mostly Cloudy
9:55 AM 28.4 °F 23.3 °F 25.7 °F 90% 29.20 in 10.0 mi Variable 4.6 mph - N/A   Mostly Cloudy
10:31 AM 28.4 °F 20.4 °F 26.6 °F 93% 29.21 in 10.0 mi NE 8.1 mph - N/A Snow Light Snow Showers
10:55 AM 30.2 °F 24.3 °F 25.2 °F 82% 29.19 in 10.0 mi Variable 5.8 mph - N/A Snow Light Snow Showers
11:55 AM 31.5 °F 20.1 °F 24.3 °F 75% 29.18 in 10.0 mi North 17.3 mph 21.9 mph N/A Snow Light Snow Showers
12:01 PM 32.0 °F 21.6 °F 24.8 °F 75% 29.18 in 10.0 mi North 15.0 mph 21.9 mph N/A   Scattered Clouds
12:55 PM 32.2 °F 23.8 °F 22.1 °F 66% 29.17 in 10.0 mi North 10.4 mph 16.1 mph N/A   Mostly Cloudy
1:55 PM 27.5 °F 17.4 °F 21.6 °F 78% 29.13 in 10.0 mi ENE 11.5 mph - N/A   Scattered Clouds
2:55 PM 27.7 °F 17.6 °F 21.2 °F 77% 29.11 in 10.0 mi ENE 11.5 mph - N/A   Mostly Cloudy
3:55 PM 28.9 °F 20.4 °F 20.5 °F 71% 29.09 in 10.0 mi ENE 9.2 mph - N/A   Overcast
4:55 PM 28.4 °F 20.4 °F 19.2 °F 69% 29.07 in 10.0 mi ENE 8.1 mph - N/A   Mostly Cloudy
5:55 PM 25.5 °F - 19.2 °F 77% 29.06 in 10.0 mi NE 2.3 mph - N/A   Mostly Cloudy
6:55 PM 25.3 °F 21.1 °F 18.3 °F 75% 29.05 in 10.0 mi Variable 3.5 mph - N/A   Overcast
7:55 PM 18.1 °F - 16.7 °F 94% 29.06 in 10.0 mi ESE 2.3 mph - N/A   Mostly Cloudy
8:55 PM 15.8 °F - 14.5 °F 95% 29.05 in 10.0 mi South 2.3 mph - N/A   Mostly Cloudy
9:55 PM 14.5 °F - 13.8 °F 97% 29.03 in 10.0 mi SSW 1.2 mph - N/A   Mostly Cloudy
10:55 PM 13.1 °F - 12.0 °F 95% 29.03 in 10.0 mi West 2.3 mph - N/A   Mostly Cloudy
11:55 PM 12.4 °F 6.3 °F 10.2 °F 91% 29.04 in 10.0 mi NE 3.5 mph - N/A   Overcast